| time (UTC) | temp C | wind direction | speed KPH | gust KPH | rain 1hr cm | rain 24hr cm | rain mn cm | humidity % | barometer mb |
| 20260504214530 | 27 | 267 | 11.3 | 29.0 | 0.00 | 0.00 | 0.00 | 31 | 1012.7 |
| 20260504213112 | 27 | 269 | 11.3 | 27.4 | 0.00 | 0.00 | 0.00 | 31 | 1012.7 |
| 20260504211532 | 27 | 268 | 8.0 | 22.5 | 0.00 | 0.00 | 0.00 | 32 | 1012.8 |
| 20260504210032 | 26 | 266 | 11.3 | 24.1 | 0.00 | 0.00 | 0.00 | 36 | 1012.9 |
| 20260504204531 | 26 | 310 | 8.0 | 16.1 | 0.00 | 0.00 | 0.00 | 38 | 1013.0 |
| 20260504203032 | 26 | 349 | 8.0 | 17.7 | 0.00 | 0.00 | 0.00 | 39 | 1013.1 |
| 20260504201529 | 26 | 13 | 8.0 | 19.3 | 0.00 | 0.00 | 0.00 | 40 | 1013.2 |
| 20260504200034 | 26 | 9 | 9.7 | 19.3 | 0.00 | 0.00 | 0.00 | 40 | 1013.2 |
| 20260504194531 | 25 | 9 | 8.0 | 19.3 | 0.00 | 0.00 | 0.00 | 40 | 1013.2 |
| 20260504193032 | 26 | 359 | 9.7 | 20.9 | 0.00 | 0.00 | 0.00 | 41 | 1013.2 |
| 20260504191608 | 25 | 11 | 8.0 | 17.7 | 0.00 | 0.00 | 0.00 | 42 | 1013.3 |
| 20260504190032 | 25 | 7 | 8.0 | 14.5 | 0.00 | 0.00 | 0.00 | 43 | 1013.4 |
| 20260504184531 | 25 | 355 | 6.4 | 14.5 | 0.00 | 0.00 | 0.00 | 44 | 1013.5 |
| 20260504181602 | 24 | 356 | 4.8 | 12.9 | 0.00 | 0.00 | 0.00 | 44 | 1013.5 |
| 20260504180040 | 23 | 2 | 6.4 | 9.7 | 0.00 | 0.00 | 0.00 | 46 | 1013.5 |
| 20260504174531 | 23 | 356 | 6.4 | 11.3 | 0.00 | 0.00 | 0.00 | 45 | 1013.6 |
| 20260504173029 | 22 | 345 | 6.4 | 12.9 | 0.00 | 0.00 | 0.00 | 46 | 1013.6 |
| 20260504171529 | 22 | 352 | 6.4 | 11.3 | 0.00 | 0.00 | 0.00 | 46 | 1013.6 |
| 20260504120144 | 9 | 161 | 3.2 | 6.4 | 0.00 | 0.00 | 0.00 | 79 | 1012.7 |
| 20260504081712 | -17 | 0 | 0.0 | 0.0 | 0.00 | 0.00 | 0.00 | 100 | |
| 20260504070112 | 13 | 148 | 6.4 | 11.3 | 0.00 | 0.00 | 0.00 | 63 | 1013.4 |
| 20260504043032 | 17 | 156 | 4.8 | 9.7 | 0.00 | 0.00 | 0.00 | 56 | 1013.0 |
| 20260504040042 | 18 | 176 | 3.2 | 6.4 | 0.00 | 0.00 | 0.00 | 51 | 1012.6 |
| 20260504033031 | 20 | 156 | 4.8 | 8.0 | 0.00 | 0.00 | 0.00 | 51 | 1012.2 |
| 20260504031534 | 21 | 163 | 4.8 | 6.4 | 0.00 | 0.00 | 0.00 | 46 | 1012.1 |
| 20260504030031 | 22 | 201 | 3.2 | 6.4 | 0.00 | 0.00 | 0.00 | 41 | 1012.1 |
| 20260504024530 | 24 | 138 | 1.6 | 6.4 | 0.00 | 0.00 | 0.00 | 37 | 1011.9 |
| 20260504023031 | 26 | 327 | 1.6 | 6.4 | 0.00 | 0.00 | 0.00 | 33 | 1011.9 |
| 20260504021532 | 26 | 317 | 3.2 | 9.7 | 0.00 | 0.00 | 0.00 | 30 | 1012.1 |
| 20260504013031 | 27 | 309 | 4.8 | 8.0 | 0.00 | 0.00 | 0.00 | 28 | 1012.4 |
| 20260504011532 | 27 | 309 | 4.8 | 11.3 | 0.00 | 0.00 | 0.00 | 26 | 1012.6 |
| 20260504010030 | 28 | 321 | 4.8 | 9.7 | 0.00 | 0.00 | 0.00 | 24 | 1012.7 |
| 20260504004530 | 28 | 13 | 6.4 | 14.5 | 0.00 | 0.00 | 0.00 | 23 | 1012.8 |
| 20260504003031 | 30 | 12 | 4.8 | 16.1 | 0.00 | 0.00 | 0.00 | 23 | 1013.0 |
| 20260504001645 | 30 | 108 | 1.6 | 12.9 | 0.00 | 0.00 | 0.00 | 23 | 1013.1 |
| 20260504000031 | 29 | 47 | 4.8 | 16.1 | 0.00 | 0.00 | 0.00 | 23 | 1013.2 |
| 20260503234529 | 28 | 24 | 8.0 | 16.1 | 0.00 | 0.00 | 0.00 | 23 | 1013.3 |
| 20260503233032 | 30 | 58 | 9.7 | 19.3 | 0.00 | 0.00 | 0.00 | 23 | 1013.4 |
| 20260503231531 | 29 | 86 | 9.7 | 19.3 | 0.00 | 0.00 | 0.00 | 24 | 1013.6 |
| 20260503230106 | 29 | 58 | 6.4 | 17.7 | 0.00 | 0.00 | 0.00 | 25 | 1013.9 |
| 20260503224608 | 28 | 50 | 8.0 | 20.9 | 0.00 | 0.00 | 0.00 | 26 | 1014.1 |
| 20260503223109 | 28 | 47 | 9.7 | 22.5 | 0.00 | 0.00 | 0.00 | 27 | 1014.3 |
| 20260503221532 | 28 | 35 | 9.7 | 22.5 | 0.00 | 0.00 | 0.00 | 26 | 1014.5 |
| 20260503220027 | 28 | 60 | 9.7 | 24.1 | 0.00 | 0.00 | 0.00 | 27 | 1014.7 |